Location: Guayaquil
(2.1667°S, 79.9000°W)
Time: 18:29:41
(UTC-05:00)

DNEPR OBJECT AB - Pass Details

Date: 29 March 2018
Orbit: 587 x 704 km, 97.6° (Epoch: 13 November)

Event Time Altitude Azimuth Distance (km) Brightness Sun altitude
Rises 19:58:49 0° 204° (SSW) 3,031 ? -23.7°
Reaches altitude 10° 20:02:35 10° 236° (SW) 2,084 ? -24.7°
Maximum altitude 20:04:11 12° 256° (WSW) 1,956 ? -25.1°
Drops below altitude 10° 20:05:45 10° 277° (W) 2,054 ? -25.5°
Sets 20:09:24 0° 310° (NW) 2,927 ? -26.4°
